[[{"header":{"parameterUnit":"m.s-1","parameterCategory":1,"la1":30.2991,"la2":30.254,"lo1":-89.0895,"lo2":-89.0444,"dy":0.0017,"dx":0.0017,"nx":28,"ny":28,"refTime":"2025-11-20T03:00:00:Z","depth":0,"parameterNumber":2,"parameterNumberName":"U-component_of_WINDS"},"data":[0,0,0,0,0,0,0,0,0,0,0,0,0,0,0,0,0,0,0,0,0,0,0,0,0,0,0,0,0,0,0,0,0,0,0,0,0,0,0,0,0,0,0,0,0,0,0,0,0,0,0,0,0,0,0,0,0,0,-0.9894,-0.9894,0,-0.9909,-0.9909,-0.9909,-0.9932,-0.9932,-0.9933,-0.9933,-0.9947,-0.9947,-0.9947,0,0,0,0,0,0,0,0,0,0,0,0,0,-0.9885,-0.9885,-0.9894,-0.9894,-0.9895,-0.9909,-0.9909,-0.9909,-0.9932,-0.9932,-0.9933,-0.9933,-0.9947,-0.9947,-0.9947,0,0,0,0,0,0,0,0,0,0,0,0,0,-0.9893,-0.9885,-0.9894,-0.9908,-0.9909,-0.9909,-0.9909,-0.991,-0.9932,-0.9932,-0.9933,-0.9933,-0.9947,-0.9947,-0.9947,-0.9935,0,0,-0.9947,-0.9947,0,0,0,0,0,0,0,0,-0.9893,-0.9893,-0.9905,-0.9907,-0.9908,-0.9919,-0.9911,-0.9918,-0.9931,-0.9923,-0.9933,-0.9934,-0.9937,-0.9938,-0.994,-0.9936,-0.9937,-0.9947,-0.9947,-0.9947,-0.9947,0,0,0,0,0,0,0,-0.9892,-0.9893,-0.99,-0.9906,-0.9907,-0.9913,-0.9914,-0.9913,-0.9927,-0.9924,-0.9925,-0.9927,-0.9938,-0.994,-0.994,-0.9937,-0.9947,-0.9947,-0.9947,-0.9947,-0.9924,-0.9923,0,0,0,0,0,0,-0.989,-0.9892,-0.99,-0.9901,-0.9902,-0.9912,-0.9914,-0.9915,-0.9927,-0.9929,-0.9926,-0.9928,-0.9939,-0.994,-0.9941,-0.9927,-0.9947,-0.9947,-0.9947,-0.9925,-0.9924,-0.9923,0,0,0,0,0,0,-0.9889,-0.989,-0.9899,-0.9897,-0.9898,-0.9912,-0.9912,-0.9915,-0.9916,-0.9929,-0.9931,-0.9925,-0.994,-0.9941,-0.9937,-0.9928,-0.9947,-0.9947,-0.9925,-0.9924,-0.9924,-0.99,0,0,0,0,0,0,-0.9889,-0.989,-0.9885,-0.9897,-0.9898,-0.9895,-0.9912,-0.9915,-0.9916,-0.9919,-0.9928,-0.993,-0.994,-0.9936,-0.9937,-0.9928,-0.9947,-0.9926,-0.9925,-0.9924,-0.9902,-0.9898,-0.9896,0,0,0,0,0,-0.9888,-0.9878,-0.9885,-0.9886,-0.9893,-0.9894,-0.9895,-0.9907,-0.9916,-0.9911,-0.9919,-0.993,-0.9929,-0.9936,-0.9936,-0.9928,-0.9927,-0.9925,-0.9924,-0.9903,-0.9899,-0.9896,0,0,0,0,0,0,-0.9865,-0.988,-0.9888,-0.9881,-0.9886,-0.9898,-0.9893,-0.9903,-0.9905,-0.9907,-0.9922,-0.9923,-0.9917,-0.9922,-0.9929,-0.9917,-0.993,-0.9928,-0.9914,-0.991,-0.9907,-0.9905,-0.9947,0,0,0,0,0,-0.9859,-0.9859,-0.9872,-0.9864,-0.9866,-0.9879,-0.988,-0.9889,-0.9895,-0.9897,-0.9905,-0.991,-0.9911,-0.9911,-0.9912,-0.9903,-0.9905,-0.9897,-0.9894,-0.9892,-0.989,-0.9885,-0.9882,-0.9919,-0.9919,-0.9919,0,0,-0.9846,-0.9855,-0.9853,-0.9859,-0.9865,-0.9864,-0.9881,-0.9879,-0.9878,-0.9897,-0.9893,-0.9899,-0.9906,-0.9899,-0.9896,-0.9903,-0.9881,-0.989,-0.9888,-0.9888,-0.9883,-0.988,-0.9877,-0.9918,-0.9918,-0.9918,0,0,-0.9823,-0.9829,-0.9824,-0.9829,-0.9837,-0.9845,-0.9844,-0.9854,-0.9859,-0.9856,-0.987,-0.9869,-0.987,-0.9875,-0.9877,-0.9856,-0.9865,-0.9856,-0.984,-0.9835,-0.9832,-0.9829,-0.9821,-0.9818,-0.9854,-0.9854,-0.9854,0,-0.9806,-0.9805,-0.9819,-0.9817,-0.9819,-0.9836,-0.983,-0.9835,-0.9842,-0.9843,-0.9851,-0.9853,-0.9859,-0.9853,-0.9848,-0.9849,-0.9848,-0.9854,-0.9831,-0.9829,-0.9827,-0.9819,-0.9816,-0.9853,-0.9853,-0.9853,-0.9853,0,-0.9784,-0.9783,-0.9778,-0.9785,-0.9787,-0.9783,-0.9796,-0.9796,-0.9805,-0.9813,-0.9809,-0.9817,-0.982,-0.982,-0.9828,-0.9815,-0.9819,-0.9829,-0.9842,-0.9822,-0.9815,-0.9812,-0.9851,-0.9852,-0.9852,-0.9852,0,0,-0.9745,-0.9761,-0.9758,-0.9762,-0.9772,-0.9772,-0.9769,-0.9772,-0.9772,-0.9777,-0.9774,-0.9775,-0.9784,-0.9787,-0.9796,-0.9792,-0.9774,-0.9802,-0.9803,-0.9796,-0.9759,-0.9751,-0.9747,-0.9781,-0.9781,-0.978,-0.9758,0,-0.9723,-0.9718,-0.9731,-0.9722,-0.9722,-0.9739,-0.9736,-0.9741,-0.9749,-0.9749,-0.9758,-0.9758,-0.977,-0.9772,-0.9769,-0.9777,-0.9767,-0.9779,-0.9778,-0.9778,-0.9774,-0.9743,-0.9735,-0.9713,-0.9756,-0.9755,-0.9755,0,-0.9696,-0.97,-0.9691,-0.9702,-0.9703,-0.97,-0.9704,-0.9704,-0.9712,-0.9717,-0.972,-0.9732,-0.9729,-0.9742,-0.9738,-0.9746,-0.9747,-0.9751,-0.9751,-0.975,-0.9764,-0.9741,-0.9707,-0.9703,-0.9751,-0.9751,-0.9751,0,-0.9667,-0.967,-0.9666,-0.9668,-0.9681,-0.9679,-0.9684,-0.9692,-0.9693,-0.9697,-0.9698,-0.9702,-0.9703,-0.9706,-0.9717,-0.9726,-0.9712,-0.9726,-0.9716,-0.9715,-0.9711,-0.9711,-0.9675,-0.9713,-0.9713,-0.9713,-0.9713,0,-0.964,-0.9634,-0.9653,-0.965,-0.9644,-0.9659,-0.9652,-0.9659,-0.9666,-0.9664,-0.968,-0.9678,-0.9694,-0.9694,-0.9703,-0.9698,-0.9699,-0.9703,-0.9706,-0.9701,-0.97,-0.9701,-0.9702,-0.9712,-0.9713,-0.9713,-0.9713,0,-0.9606,-0.9618,-0.9614,-0.9627,-0.963,-0.9625,-0.9636,-0.9634,-0.9643,-0.9641,-0.9641,-0.9655,-0.9655,-0.9668,-0.9671,-0.9677,-0.9668,-0.9674,-0.9666,-0.9667,-0.9655,-0.9656,-0.9618,-0.9613,-0.9655,-0.9655,-0.9654,0,-0.9587,-0.9583,-0.9596,-0.9596,-0.96,-0.9601,-0.9602,-0.9617,-0.9618,-0.9626,-0.9623,-0.9625,-0.9627,-0.9628,-0.9638,-0.964,-0.9646,-0.9632,-0.9646,-0.9642,-0.9644,-0.9644,-0.9643,-0.9629,-0.9628,-0.9628,-0.9627,0,-0.9552,-0.9559,-0.9561,-0.9565,-0.9567,-0.9571,-0.9575,-0.9575,-0.9591,-0.9592,-0.9593,-0.9595,-0.9598,-0.96,-0.9605,-0.961,-0.9621,-0.9623,-0.9621,-0.9615,-0.961,-0.9612,-0.9656,-0.9624,-0.9624,-0.9624,-0.9624,-0.9625,-0.9525,-0.9522,-0.953,-0.9532,-0.9537,-0.9541,-0.954,-0.9549,-0.955,-0.9554,-0.9563,-0.9563,-0.957,-0.9578,-0.9582,-0.9582,-0.9589,-0.9585,-0.9584,-0.9583,-0.958,-0.9612,-0.9583,-0.9583,-0.9583,-0.9583,-0.9583,0,-0.949,-0.9496,-0.9498,-0.9504,-0.9505,-0.9517,-0.9523,-0.9523,-0.9523,-0.9529,-0.9531,-0.9533,-0.9534,-0.9545,-0.9548,-0.9546,-0.9551,-0.9546,-0.9545,-0.9546,-0.9574,-0.9576,-0.9541,-0.9541,-0.9541,-0.9542,-0.9542,-0.9542,-0.9472,-0.9467,-0.9475,-0.9473,-0.948,-0.9479,-0.9482,-0.9486,-0.9491,-0.9492,-0.9493,-0.9501,-0.9508,-0.9512,-0.9514,-0.9517,-0.9517,-0.951,-0.9515,-0.954,-0.9544,-0.9548,-0.9549,-0.951,-0.951,-0.9487,-0.9486,-0.9486]},{"header":{"parameterUnit":"m.s-1","parameterCategory":1,"la1":30.2991,"la2":30.254,"lo1":-89.0895,"lo2":-89.0444,"dy":0.0017,"dx":0.0017,"nx":28,"ny":28,"refTime":"2025-11-20T03:00:00:Z","depth":0,"parameterNumber":3,"parameterNumberName":"V-component_of_WINDS"},"data":[0,0,0,0,0,0,0,0,0,0,0,0,0,0,0,0,0,0,0,0,0,0,0,0,0,0,0,0,0,0,0,0,0,0,0,0,0,0,0,0,0,0,0,0,0,0,0,0,0,0,0,0,0,0,0,0,0,0,3.5487,3.5488,0,3.5565,3.5566,3.5567,3.5571,3.557,3.5569,3.5568,3.5645,3.5648,3.5651,0,0,0,0,0,0,0,0,0,0,0,0,0,3.5339,3.5342,3.5487,3.5488,3.5489,3.5565,3.5566,3.5567,3.5571,3.557,3.5569,3.5568,3.5644,3.5648,3.5651,0,0,0,0,0,0,0,0,0,0,0,0,0,3.5409,3.5343,3.5487,3.55,3.5502,3.5565,3.5566,3.5567,3.5571,3.557,3.5569,3.5568,3.5643,3.5647,3.5651,3.5705,0,0,3.5665,3.5666,0,0,0,0,0,0,0,0,3.5405,3.5414,3.5497,3.55,3.5502,3.5557,3.5542,3.5613,3.5572,3.5545,3.5568,3.5567,3.5617,3.5623,3.5641,3.5708,3.5712,3.5665,3.5668,3.5669,3.5671,0,0,0,0,0,0,0,3.54,3.5411,3.5518,3.5499,3.5501,3.5502,3.551,3.5556,3.5587,3.5547,3.5548,3.5557,3.5618,3.5636,3.5642,3.5713,3.5665,3.5669,3.5671,3.5673,3.583,3.5831,0,0,0,0,0,0,3.5393,3.5407,3.5515,3.552,3.5449,3.5505,3.5515,3.5541,3.5587,3.5593,3.5558,3.5557,3.563,3.5637,3.5645,3.5712,3.5669,3.5673,3.5676,3.5828,3.583,3.5832,0,0,0,0,0,0,3.539,3.5403,3.5512,3.5464,3.5478,3.5509,3.5538,3.5543,3.5562,3.5595,3.5601,3.5572,3.5629,3.5639,3.5691,3.5715,3.5675,3.5679,3.5827,3.5829,3.5831,3.5845,0,0,0,0,0,0,3.5386,3.5402,3.5423,3.5464,3.548,3.5557,3.554,3.5545,3.557,3.5569,3.5609,3.5615,3.5629,3.5684,3.5695,3.572,3.5683,3.5825,3.5828,3.583,3.5843,3.5848,3.5852,0,0,0,0,0,3.538,3.5422,3.5424,3.5437,3.5508,3.5558,3.5568,3.5584,3.5571,3.5593,3.5614,3.5613,3.571,3.5689,3.5701,3.5728,3.5823,3.5827,3.583,3.5841,3.5847,3.5852,0,0,0,0,0,0,3.5381,3.5428,3.543,3.5487,3.5519,3.5559,3.5586,3.5589,3.5625,3.5622,3.564,3.5649,3.57,3.5719,3.5695,3.5783,3.5765,3.5771,3.5769,3.5775,3.578,3.5775,3.5686,0,0,0,0,0,3.5388,3.5427,3.5465,3.5512,3.5528,3.5554,3.5577,3.5587,3.562,3.5633,3.5659,3.569,3.5728,3.5752,3.5789,3.5845,3.5855,3.587,3.5874,3.5878,3.5883,3.5916,3.5924,3.5844,3.5844,3.5844,0,0,3.5403,3.5433,3.5456,3.5513,3.5539,3.5578,3.5566,3.5607,3.5636,3.5639,3.569,3.571,3.5746,3.5801,3.5827,3.5819,3.5908,3.5883,3.5885,3.5889,3.5921,3.5928,3.5935,3.5846,3.5846,3.5845,0,0,3.545,3.5476,3.5519,3.5545,3.5585,3.5603,3.5613,3.5654,3.5667,3.5719,3.5723,3.5757,3.5821,3.5848,3.5869,3.5928,3.5929,3.5939,3.5964,3.5995,3.6002,3.6008,3.603,3.6037,3.5944,3.5944,3.5944,0,3.5463,3.5523,3.554,3.5582,3.5607,3.5613,3.5657,3.5681,3.573,3.5747,3.5738,3.582,3.5844,3.5906,3.5921,3.5938,3.595,3.5935,3.6,3.6006,3.6011,3.6033,3.6041,3.5945,3.5945,3.5945,3.5945,0,3.5537,3.5578,3.5608,3.5657,3.5685,3.5728,3.5751,3.5777,3.5785,3.5803,3.5856,3.5887,3.593,3.5945,3.5952,3.6009,3.6003,3.5996,3.5979,3.602,3.604,3.6048,3.5947,3.5946,3.5946,3.5946,0,0,3.5587,3.5646,3.5657,3.568,3.5725,3.5757,3.58,3.5844,3.5866,3.59,3.5937,3.5992,3.5986,3.6011,3.6021,3.6049,3.6095,3.6039,3.604,3.605,3.6161,3.6167,3.6176,3.6096,3.6097,3.6099,3.6158,0,3.564,3.5717,3.5735,3.5801,3.584,3.5847,3.5884,3.5916,3.5934,3.597,3.5989,3.6029,3.6018,3.6034,3.6061,3.6084,3.6118,3.6079,3.613,3.6132,3.6123,3.6186,3.6192,3.6247,3.6166,3.6168,3.6169,0,3.5712,3.5749,3.582,3.5862,3.5879,3.5912,3.5955,3.5988,3.6024,3.6036,3.6064,3.6072,3.6116,3.6096,3.6158,3.6132,3.6153,3.6168,3.617,3.6176,3.6154,3.6196,3.6265,3.6274,3.6181,3.618,3.6179,0,3.5743,3.5811,3.5863,3.5882,3.5931,3.5955,3.5976,3.6011,3.6036,3.6073,3.609,3.613,3.6153,3.6184,3.6203,3.6186,3.6264,3.6245,3.6275,3.6275,3.6292,3.6291,3.6368,3.6304,3.6304,3.6304,3.6304,0,3.5801,3.5844,3.5878,3.5909,3.5959,3.5978,3.6025,3.6047,3.6078,3.6114,3.6121,3.6155,3.6176,3.6213,3.6227,3.6277,3.6287,3.6298,3.6301,3.6298,3.6297,3.6313,3.6311,3.6306,3.6305,3.6305,3.6305,0,3.5844,3.5868,3.5925,3.5968,3.5979,3.6014,3.605,3.6081,3.61,3.6146,3.6157,3.6187,3.6231,3.6252,3.6305,3.6315,3.6373,3.6373,3.6361,3.6363,3.6393,3.639,3.6483,3.6497,3.6423,3.6424,3.6424,0,3.5881,3.5915,3.5961,3.5987,3.6009,3.6049,3.6076,3.6096,3.6124,3.6168,3.6194,3.6238,3.6275,3.6344,3.637,3.6412,3.6414,3.6444,3.642,3.6417,3.6417,3.6415,3.6419,3.6448,3.6449,3.645,3.645,0,3.5943,3.5954,3.5992,3.6036,3.6068,3.6103,3.6137,3.6158,3.6183,3.6214,3.6259,3.6288,3.6343,3.6388,3.6431,3.6453,3.6456,3.6457,3.6467,3.6465,3.6457,3.6463,3.6374,3.6455,3.6455,3.6454,3.6454,3.6454,3.5985,3.6016,3.6055,3.6098,3.6126,3.6159,3.6191,3.6214,3.6253,3.6301,3.631,3.6359,3.6394,3.6454,3.6477,3.6515,3.6508,3.6521,3.6525,3.6529,3.6531,3.645,3.6523,3.6522,3.6522,3.6522,3.6522,0,3.6049,3.6075,3.6114,3.6163,3.6198,3.6199,3.6237,3.6265,3.6309,3.6342,3.6379,3.6432,3.6475,3.6505,3.6549,3.6574,3.6576,3.6585,3.6584,3.6589,3.6534,3.6522,3.6582,3.6582,3.6582,3.6582,3.6582,3.6582,3.6087,3.6141,3.6156,3.6223,3.6248,3.6297,3.6319,3.6349,3.6376,3.6435,3.6472,3.6491,3.6524,3.657,3.661,3.6618,3.6634,3.6643,3.6651,3.6599,3.6592,3.6587,3.6576,3.6646,3.6646,3.6703,3.6703,3.6704]}]]